Regional Weather Roundup
Issued by NWS Huntsville, AL

Home | Current Version | Previous Version | Text Only | Print | Product List | Glossary On
Versions: 1 2 3 4 5 6 7 8 9 10 11 12 13 14 15 16 17 18 19 20 21 22 23 24 25 26 27 28 29 30 31 32 33 34 35 36 37 38 39 40 41 42 43 44 45 46 47 48 49 50
000
ASUS44 KHUN 061010
RWRHUN

WEATHER ROUNDUP FOR THE TENNESSEE VALLEY
NATIONAL WEATHER SERVICE HUNTSVILLE AL
500 AM CDT MON JUL 06 2015

ALZ001>004-061100-
NORTHWEST ALABAMA

CITY           SKY/WX    TMP DP  RH WIND       PRES   REMARKS
COURTLAND HCN    N/A     68 N/A N/A S3          N/A
RUSSELLVILLE     N/A     66 N/A N/A MISG        N/A
SHOALS AIRPORT CLEAR     69  65  86 CALM      30.13R
SHOALS TVA RES   N/A     68 N/A N/A MISG        N/A
$$

ALZ005>007-016-061100-
NORTH CENTRAL ALABAMA

CITY           SKY/WX    TMP DP  RH WIND       PRES   REMARKS
DECATUR AP     PTCLDY    71  69  93 W5        30.12R
HUNTSVILLE AP  PTCLDY    72  68  87 SW3       30.12R
HUN NWS/UAH      N/A     72  67  83 SW3         N/A
MERIDIANVILLE  MOCLDY    68  64  88 CALM      30.12R
REDSTONE ARSN  PTCLDY    71  69  93 SW5       30.12R
VINEMONT AP    PTSUNNY   69  68  97 CALM      30.16R
$$

ALZ008>010-061100-
NORTHEAST ALABAMA

CITY           SKY/WX    TMP DP  RH WIND       PRES   REMARKS
ALBERTVILLE    CLOUDY    72  72 100 W5        30.13R
FORT PAYNE     CLOUDY    68  64  88 CALM      30.13R FOG
SCOTTSBORO AP  CLOUDY    70  70 100 CALM      30.12R
SCOTTSBORO HCN   N/A     70 N/A N/A MISG        N/A
VALLEY HEAD      N/A     66 N/A N/A MISG        N/A
$$

TNZ076-096-097-061100-
SOUTHEASTERN MIDDLE TENNESSEE

CITY           SKY/WX    TMP DP  RH WIND       PRES   REMARKS
TULLAHOMA      PTCLDY    64  64 100 CALM      30.14R
WINCHESTER     CLEAR     66  66 100 CALM      30.13R
$$

...SURROUNDING SITES...

CITY           SKY/WX    TMP DP  RH WIND       PRES   REMARKS
ATLANTA        CLOUDY    72  68  88 W3        30.13R
ANNISTON       CLOUDY    72  70  93 CALM      30.12R
BIRMINGHAM     CLOUDY    72  70  93 NW3       30.14R
CHATTANOOGA    MOCLDY    69  67  93 CALM      30.12R
CORINTH        MOCLDY    70  68  94 CALM      30.09R
DALTON         CLOUDY    66  66 100 CALM      30.12R
GADSDEN        CLOUDY    81  66  61 CALM      30.11R
GOLDEN TRNGL   CLOUDY    66  64  94 SW8       30.12R
HALEYVILLE     FOG       68  68 100 CALM      30.15S VSB 1/4
JACKSON TN     CLEAR     69  67  93 S3        30.08R
MEMPHIS        PTCLDY    72  68  88 S6        30.09R
NASHVILLE      CLEAR     69  69 100 CALM      30.10R
ROME           CLOUDY    68  67  96 CALM      30.11R
SAVANNAH       CLEAR     68  32  26 CALM      30.11R
TUPELO         PTCLDY    70  68  93 S5        30.09S
TUSCALOOSA     CLEAR     67  66  97 CALM      30.11S
$$

...GULF COAST WEATHER...

CITY           SKY/WX    TMP DP  RH WIND       PRES   REMARKS
GULFPORT       CLOUDY    70  67  90 CALM      30.12R
PASCAGOULA     MOCLDY    69  68  96 CALM      30.13R
MOBILE         PTCLDY    67  67 100 CALM      30.14R
GULF SHORES    CLOUDY    70  69  98 CALM      30.12R
PENSACOLA      MOCLDY    71  68  90 CALM      30.11R
DESTIN         MOCLDY    74  70  87 CALM      30.11S
PANAMA CITY    CLEAR     71  69  93 CALM      30.11R
APPALACHICOLA  PTCLDY    76  69  79 S3        30.10S
$$



USA.gov is the U.S. government's official web portal to all federal, state and local government web resources and services.